Year,Month,Day,Hour,Minute,Value (Times are PST for temperature in C)
2011,08,17,00,00,14.80
2011,08,17,00,01,14.80
2011,08,17,00,02,14.80
2011,08,17,00,03,14.80
2011,08,17,00,04,14.70
2011,08,17,00,05,14.70
2011,08,17,00,06,14.70
2011,08,17,00,07,14.60
2011,08,17,00,08,14.60
2011,08,17,00,09,14.60
2011,08,17,00,10,14.50
2011,08,17,00,11,14.50
2011,08,17,00,12,14.50
2011,08,17,00,13,14.40
2011,08,17,00,14,14.40
2011,08,17,00,15,14.40
2011,08,17,00,16,14.30
2011,08,17,00,17,14.30
2011,08,17,00,18,14.30
2011,08,17,00,19,14.30
2011,08,17,00,20,14.30
2011,08,17,00,21,14.30
2011,08,17,00,22,14.30
2011,08,17,00,23,14.30
2011,08,17,00,24,14.30
2011,08,17,00,25,14.30
2011,08,17,00,26,14.30
2011,08,17,00,27,14.20
2011,08,17,00,28,14.20
2011,08,17,00,29,14.20
2011,08,17,00,30,14.20
2011,08,17,00,31,14.20
2011,08,17,00,32,14.20
2011,08,17,00,33,14.20
2011,08,17,00,34,14.20
2011,08,17,00,35,14.10
2011,08,17,00,36,14.10
2011,08,17,00,37,14.10
2011,08,17,00,38,14.10
2011,08,17,00,39,14.00
2011,08,17,00,40,14.00
2011,08,17,00,41,14.00
2011,08,17,00,42,14.00
2011,08,17,00,43,14.00
2011,08,17,00,44,13.90
2011,08,17,00,45,13.90
2011,08,17,00,46,13.90
2011,08,17,00,47,13.90
2011,08,17,00,48,13.90
2011,08,17,00,49,13.90
2011,08,17,00,50,13.90
2011,08,17,00,51,13.80
2011,08,17,00,52,13.80
2011,08,17,00,53,13.80
2011,08,17,00,54,13.70
2011,08,17,00,55,13.70
2011,08,17,00,56,13.70
2011,08,17,00,57,13.70
2011,08,17,00,58,13.60
2011,08,17,00,59,13.60
2011,08,17,01,00,13.60
2011,08,17,01,01,13.50
2011,08,17,01,02,13.50
2011,08,17,01,03,13.40
2011,08,17,01,04,13.40
2011,08,17,01,05,13.40
2011,08,17,01,06,13.30
2011,08,17,01,07,13.30
2011,08,17,01,08,13.30
2011,08,17,01,09,13.30
2011,08,17,01,10,13.30
2011,08,17,01,11,13.20
2011,08,17,01,12,13.20
2011,08,17,01,13,13.20
2011,08,17,01,14,13.10
2011,08,17,01,15,13.10
2011,08,17,01,16,13.10
2011,08,17,01,17,13.00
2011,08,17,01,18,13.00
2011,08,17,01,19,13.00
2011,08,17,01,20,12.90
2011,08,17,01,21,12.90
2011,08,17,01,22,12.90
2011,08,17,01,23,12.90
2011,08,17,01,24,12.80
2011,08,17,01,25,12.80
2011,08,17,01,26,12.80
2011,08,17,01,27,12.80
2011,08,17,01,28,12.80
2011,08,17,01,29,12.70
2011,08,17,01,30,12.70
2011,08,17,01,31,12.70
2011,08,17,01,32,12.70
2011,08,17,01,33,12.70
2011,08,17,01,34,12.70
2011,08,17,01,35,12.80
2011,08,17,01,36,12.80
2011,08,17,01,37,12.80
2011,08,17,01,38,12.80
2011,08,17,01,39,12.90
2011,08,17,01,40,12.90
2011,08,17,01,41,12.90
2011,08,17,01,42,12.90
2011,08,17,01,43,12.90
2011,08,17,01,44,12.90
2011,08,17,01,45,12.90
2011,08,17,01,46,12.90
2011,08,17,01,47,12.80
2011,08,17,01,48,12.80
2011,08,17,01,49,12.80
2011,08,17,01,50,12.80
2011,08,17,01,51,12.70
2011,08,17,01,52,12.70
2011,08,17,01,53,12.60
2011,08,17,01,54,12.60
2011,08,17,01,55,12.50
2011,08,17,01,56,12.50
2011,08,17,01,57,12.50
2011,08,17,01,58,12.40
2011,08,17,01,59,12.30
2011,08,17,02,00,12.30
2011,08,17,02,01,12.30
2011,08,17,02,02,12.20
2011,08,17,02,03,12.20
2011,08,17,02,04,12.10
2011,08,17,02,05,12.10
2011,08,17,02,06,12.00
2011,08,17,02,07,12.00
2011,08,17,02,08,11.90
2011,08,17,02,09,11.90
2011,08,17,02,10,11.90
2011,08,17,02,11,11.80
2011,08,17,02,12,11.80
2011,08,17,02,13,11.80
2011,08,17,02,14,11.80
2011,08,17,02,15,11.80
2011,08,17,02,16,11.80
2011,08,17,02,17,11.80
2011,08,17,02,18,11.80
2011,08,17,02,19,11.80
2011,08,17,02,20,11.80
2011,08,17,02,21,11.80
2011,08,17,02,22,11.80
2011,08,17,02,23,11.80
2011,08,17,02,24,11.80
2011,08,17,02,25,11.80
2011,08,17,02,26,11.70
2011,08,17,02,27,11.70
2011,08,17,02,28,11.60
2011,08,17,02,29,11.60
2011,08,17,02,30,11.60
2011,08,17,02,31,11.60
2011,08,17,02,32,11.60
2011,08,17,02,33,11.60
2011,08,17,02,34,11.60
2011,08,17,02,35,11.50
2011,08,17,02,36,11.40
2011,08,17,02,37,11.40
2011,08,17,02,38,11.40
2011,08,17,02,39,11.40
2011,08,17,02,40,11.40
2011,08,17,02,41,11.40
2011,08,17,02,42,11.40
2011,08,17,02,43,11.30
2011,08,17,02,44,11.30
2011,08,17,02,45,11.30
2011,08,17,02,46,11.30
2011,08,17,02,47,11.30
2011,08,17,02,48,11.20
2011,08,17,02,49,11.20
2011,08,17,02,50,11.20
2011,08,17,02,51,11.20
2011,08,17,02,52,11.20
2011,08,17,02,53,11.20
2011,08,17,02,54,11.10
2011,08,17,02,55,11.10
2011,08,17,02,56,11.10
2011,08,17,02,57,11.10
2011,08,17,02,58,11.10
2011,08,17,02,59,11.10
2011,08,17,03,00,11.00
2011,08,17,03,01,10.90
2011,08,17,03,02,10.90
2011,08,17,03,03,10.90
2011,08,17,03,04,10.90
2011,08,17,03,05,10.90
2011,08,17,03,06,10.90
2011,08,17,03,07,10.90
2011,08,17,03,08,10.90
2011,08,17,03,09,10.90
2011,08,17,03,10,10.90
2011,08,17,03,11,10.90
2011,08,17,03,12,10.90
2011,08,17,03,13,10.90
2011,08,17,03,14,10.90
2011,08,17,03,15,10.90
2011,08,17,03,16,10.90
2011,08,17,03,17,10.90
2011,08,17,03,18,10.90
2011,08,17,03,19,10.90
2011,08,17,03,20,10.90
2011,08,17,03,21,10.80
2011,08,17,03,22,10.80
2011,08,17,03,23,10.80
2011,08,17,03,24,10.80
2011,08,17,03,25,10.80
2011,08,17,03,26,10.80
2011,08,17,03,27,10.80
2011,08,17,03,28,10.80
2011,08,17,03,29,10.70
2011,08,17,03,30,10.70
2011,08,17,03,31,10.70
2011,08,17,03,32,10.70
2011,08,17,03,33,10.70
2011,08,17,03,34,10.70
2011,08,17,03,35,10.70
2011,08,17,03,36,10.60
2011,08,17,03,37,10.60
2011,08,17,03,38,10.60
2011,08,17,03,39,10.60
2011,08,17,03,40,10.60
2011,08,17,03,41,10.60
2011,08,17,03,42,10.60
2011,08,17,03,43,10.60
2011,08,17,03,44,10.60
2011,08,17,03,45,10.60
2011,08,17,03,46,10.60
2011,08,17,03,47,10.60
2011,08,17,03,48,10.60
2011,08,17,03,49,10.60
2011,08,17,03,50,10.60
2011,08,17,03,51,10.60
2011,08,17,03,52,10.60
2011,08,17,03,53,10.50
2011,08,17,03,54,10.50
2011,08,17,03,55,10.40
2011,08,17,03,56,10.40
2011,08,17,03,57,10.40
2011,08,17,03,58,10.40
2011,08,17,03,59,10.40
2011,08,17,04,00,10.40
2011,08,17,04,01,10.40
2011,08,17,04,02,10.40
2011,08,17,04,03,10.40
2011,08,17,04,04,10.40
2011,08,17,04,05,10.40
2011,08,17,04,06,10.40
2011,08,17,04,07,10.40
2011,08,17,04,08,10.30
2011,08,17,04,09,10.30
2011,08,17,04,10,10.30
2011,08,17,04,11,10.30
2011,08,17,04,12,10.30
2011,08,17,04,13,10.30
2011,08,17,04,14,10.20
2011,08,17,04,15,10.20
2011,08,17,04,16,10.20
2011,08,17,04,17,10.20
2011,08,17,04,18,10.20
2011,08,17,04,19,10.10
2011,08,17,04,20,10.10
2011,08,17,04,21,10.10
2011,08,17,04,22,10.10
2011,08,17,04,23,10.10
2011,08,17,04,24,10.10
2011,08,17,04,25,10.10
2011,08,17,04,26,10.10
2011,08,17,04,27,10.10
2011,08,17,04,28,10.10
2011,08,17,04,29,10.10
2011,08,17,04,30,10.10
2011,08,17,04,31,10.10
2011,08,17,04,32,10.00
2011,08,17,04,33,9.90
2011,08,17,04,34,9.90
2011,08,17,04,35,9.90
2011,08,17,04,36,9.90
2011,08,17,04,37,9.90
2011,08,17,04,38,9.90
2011,08,17,04,39,9.90
2011,08,17,04,40,9.90
2011,08,17,04,41,9.90
2011,08,17,04,42,9.90
2011,08,17,04,43,9.90
2011,08,17,04,44,9.90
2011,08,17,04,45,9.90
2011,08,17,04,46,9.90
2011,08,17,04,47,9.90
2011,08,17,04,48,9.90
2011,08,17,04,49,9.90
2011,08,17,04,50,9.90
2011,08,17,04,51,9.90
2011,08,17,04,52,9.90
2011,08,17,04,53,9.90
2011,08,17,04,54,9.90
2011,08,17,04,55,9.90
2011,08,17,04,56,9.90
2011,08,17,04,57,9.90
2011,08,17,04,58,9.90
2011,08,17,04,59,9.90
2011,08,17,05,00,9.90
2011,08,17,05,01,9.90
2011,08,17,05,02,9.90
2011,08,17,05,03,9.90
2011,08,17,05,04,9.90
2011,08,17,05,05,9.90
2011,08,17,05,06,9.90
2011,08,17,05,07,9.90
2011,08,17,05,08,9.90
2011,08,17,05,09,9.90
2011,08,17,05,10,9.90
2011,08,17,05,11,9.90
2011,08,17,05,12,9.90
2011,08,17,05,13,9.90
2011,08,17,05,14,9.90
2011,08,17,05,15,9.90
2011,08,17,05,16,9.80
2011,08,17,05,17,9.80
2011,08,17,05,18,9.80
2011,08,17,05,19,9.80
2011,08,17,05,20,9.80
2011,08,17,05,21,9.70
2011,08,17,05,22,9.70
2011,08,17,05,23,9.70
2011,08,17,05,24,9.70
2011,08,17,05,25,9.70
2011,08,17,05,26,9.70
2011,08,17,05,27,9.70
2011,08,17,05,28,9.70
2011,08,17,05,29,9.70
2011,08,17,05,30,9.70
2011,08,17,05,31,9.70
2011,08,17,05,32,9.70
2011,08,17,05,33,9.70
2011,08,17,05,34,9.70
2011,08,17,05,35,9.60
2011,08,17,05,36,9.60
2011,08,17,05,37,9.60
2011,08,17,05,38,9.60
2011,08,17,05,39,9.60
2011,08,17,05,40,9.60
2011,08,17,05,41,9.60
2011,08,17,05,42,9.60
2011,08,17,05,43,9.60
2011,08,17,05,44,9.60
2011,08,17,05,45,9.60
2011,08,17,05,46,9.60
2011,08,17,05,47,9.60
2011,08,17,05,48,9.60
2011,08,17,05,49,9.60
2011,08,17,05,50,9.60
2011,08,17,05,51,9.60
2011,08,17,05,52,9.60
2011,08,17,05,53,9.60
2011,08,17,05,54,9.60
2011,08,17,05,55,9.60
2011,08,17,05,56,9.60
2011,08,17,05,57,9.60
2011,08,17,05,58,9.60
2011,08,17,05,59,9.60
2011,08,17,06,00,9.60
2011,08,17,06,01,9.50
2011,08,17,06,02,9.50
2011,08,17,06,03,9.50
2011,08,17,06,04,9.50
2011,08,17,06,05,9.50
2011,08,17,06,06,9.50
2011,08,17,06,07,9.50
2011,08,17,06,08,9.50
2011,08,17,06,09,9.50
2011,08,17,06,10,9.40
2011,08,17,06,11,9.40
2011,08,17,06,12,9.40
2011,08,17,06,13,9.40
2011,08,17,06,14,9.40
2011,08,17,06,15,9.40
2011,08,17,06,16,9.40
2011,08,17,06,17,9.40
2011,08,17,06,18,9.40
2011,08,17,06,19,9.40
2011,08,17,06,20,9.40
2011,08,17,06,21,9.40
2011,08,17,06,22,9.40
2011,08,17,06,23,9.40
2011,08,17,06,24,9.40
2011,08,17,06,25,9.40
2011,08,17,06,26,9.40
2011,08,17,06,27,9.40
2011,08,17,06,28,9.30
2011,08,17,06,29,9.30
2011,08,17,06,30,9.30
2011,08,17,06,31,9.30
2011,08,17,06,32,9.30
2011,08,17,06,33,9.30
2011,08,17,06,34,9.30
2011,08,17,06,35,9.30
2011,08,17,06,36,9.30
2011,08,17,06,37,9.30
2011,08,17,06,38,9.30
2011,08,17,06,39,9.40
2011,08,17,06,40,9.40
2011,08,17,06,41,9.40
2011,08,17,06,42,9.40
2011,08,17,06,43,9.40
2011,08,17,06,44,9.40
2011,08,17,06,45,9.40
2011,08,17,06,46,9.40
2011,08,17,06,47,9.50
2011,08,17,06,48,9.50
2011,08,17,06,49,9.60
2011,08,17,06,50,9.60
2011,08,17,06,51,9.70
2011,08,17,06,52,9.70
2011,08,17,06,53,9.70
2011,08,17,06,54,9.80
2011,08,17,06,55,9.90
2011,08,17,06,56,9.90
2011,08,17,06,57,10.10
2011,08,17,06,58,10.10
2011,08,17,06,59,10.10
2011,08,17,07,00,10.20
2011,08,17,07,01,10.20
2011,08,17,07,02,10.30
2011,08,17,07,03,10.40
2011,08,17,07,04,10.40
2011,08,17,07,05,10.40
2011,08,17,07,06,10.40
2011,08,17,07,07,10.50
2011,08,17,07,08,10.60
2011,08,17,07,09,10.60
2011,08,17,07,10,10.60
2011,08,17,07,11,10.70
2011,08,17,07,12,10.70
2011,08,17,07,13,10.80
2011,08,17,07,14,10.80
2011,08,17,07,15,10.90
2011,08,17,07,16,10.90
2011,08,17,07,17,10.90
2011,08,17,07,18,11.10
2011,08,17,07,19,11.10
2011,08,17,07,20,11.10
2011,08,17,07,21,11.20
2011,08,17,07,22,11.20
2011,08,17,07,23,11.30
2011,08,17,07,24,11.30
2011,08,17,07,25,11.40
2011,08,17,07,26,11.50
2011,08,17,07,27,11.60
2011,08,17,07,28,11.60
2011,08,17,07,29,11.70
2011,08,17,07,30,11.80
2011,08,17,07,31,11.80
2011,08,17,07,32,11.90
2011,08,17,07,33,12.00
2011,08,17,07,34,12.20
2011,08,17,07,35,12.30
2011,08,17,07,36,12.40
2011,08,17,07,37,12.40
2011,08,17,07,38,12.50
2011,08,17,07,39,12.60
2011,08,17,07,40,12.60
2011,08,17,07,41,12.70
2011,08,17,07,42,12.70
2011,08,17,07,43,12.80
2011,08,17,07,44,12.80
2011,08,17,07,45,12.80
2011,08,17,07,46,12.90
2011,08,17,07,47,12.90
2011,08,17,07,48,13.00
2011,08,17,07,49,13.00
2011,08,17,07,50,13.10
2011,08,17,07,51,13.20
2011,08,17,07,52,13.20
2011,08,17,07,53,13.30
2011,08,17,07,54,13.30
2011,08,17,07,55,13.40
2011,08,17,07,56,13.40
2011,08,17,07,57,13.50
2011,08,17,07,58,13.60
2011,08,17,07,59,13.60
2011,08,17,08,00,13.70
2011,08,17,08,01,13.70
2011,08,17,08,02,13.80
2011,08,17,08,03,13.80
2011,08,17,08,04,13.90
2011,08,17,08,05,13.90
2011,08,17,08,06,14.00
2011,08,17,08,07,14.10
2011,08,17,08,08,14.20
2011,08,17,08,09,14.20
2011,08,17,08,10,14.30
2011,08,17,08,11,14.30
2011,08,17,08,12,14.40
2011,08,17,08,13,14.50
2011,08,17,08,14,14.60
2011,08,17,08,15,14.60
2011,08,17,08,16,14.70
2011,08,17,08,17,14.70
2011,08,17,08,18,14.80
2011,08,17,08,19,14.80
2011,08,17,08,20,14.90
2011,08,17,08,21,15.00
2011,08,17,08,22,15.10
2011,08,17,08,23,15.20
2011,08,17,08,24,15.30
2011,08,17,08,25,15.30
2011,08,17,08,26,15.40
2011,08,17,08,27,15.40
2011,08,17,08,28,15.50
2011,08,17,08,29,15.60
2011,08,17,08,30,15.60
2011,08,17,08,31,15.70
2011,08,17,08,32,15.70
2011,08,17,08,33,15.80
2011,08,17,08,34,15.80
2011,08,17,08,35,15.80
2011,08,17,08,36,15.80
2011,08,17,08,37,15.80
2011,08,17,08,38,15.80
2011,08,17,08,39,15.80
2011,08,17,08,40,15.80
2011,08,17,08,41,15.90
2011,08,17,08,42,15.90
2011,08,17,08,43,15.90
2011,08,17,08,44,15.90
2011,08,17,08,45,15.90
2011,08,17,08,46,15.90
2011,08,17,08,47,16.00
2011,08,17,08,48,16.10
2011,08,17,08,49,16.10
2011,08,17,08,50,16.10
2011,08,17,08,51,16.10
2011,08,17,08,52,16.10
2011,08,17,08,53,16.20
2011,08,17,08,54,16.20
2011,08,17,08,55,16.20
2011,08,17,08,56,16.20
2011,08,17,08,57,16.30
2011,08,17,08,58,16.30
2011,08,17,08,59,16.40
2011,08,17,09,00,16.40
2011,08,17,09,01,16.50
2011,08,17,09,02,16.60
2011,08,17,09,03,16.70
2011,08,17,09,04,16.70
2011,08,17,09,05,16.70
2011,08,17,09,06,16.80
2011,08,17,09,07,16.80
2011,08,17,09,08,16.80
2011,08,17,09,09,16.90
2011,08,17,09,10,16.90
2011,08,17,09,11,16.90
2011,08,17,09,12,17.00
2011,08,17,09,13,17.00
2011,08,17,09,14,17.00
2011,08,17,09,15,17.00
2011,08,17,09,16,17.10
2011,08,17,09,17,17.20
2011,08,17,09,18,17.30
2011,08,17,09,19,17.30
2011,08,17,09,20,17.30
2011,08,17,09,21,17.30
2011,08,17,09,22,17.30
2011,08,17,09,23,17.20
2011,08,17,09,24,17.20
2011,08,17,09,25,17.10
2011,08,17,09,26,17.10
2011,08,17,09,27,17.10
2011,08,17,09,28,17.10
2011,08,17,09,29,17.20
2011,08,17,09,30,17.20
2011,08,17,09,31,17.30
2011,08,17,09,32,17.30
2011,08,17,09,33,17.30
2011,08,17,09,34,17.30
2011,08,17,09,35,17.30
2011,08,17,09,36,17.40
2011,08,17,09,37,17.40
2011,08,17,09,38,17.50
2011,08,17,09,39,17.50
2011,08,17,09,40,17.60
2011,08,17,09,41,17.70
2011,08,17,09,42,17.70
2011,08,17,09,43,17.80
2011,08,17,09,44,17.80
2011,08,17,09,45,17.80
2011,08,17,09,46,17.80
2011,08,17,09,47,17.90
2011,08,17,09,48,17.90
2011,08,17,09,49,17.90
2011,08,17,09,50,18.00
2011,08,17,09,51,18.10
2011,08,17,09,52,18.10
2011,08,17,09,53,18.20
2011,08,17,09,54,18.20
2011,08,17,09,55,18.20
2011,08,17,09,56,18.20
2011,08,17,09,57,18.20
2011,08,17,09,58,18.20
2011,08,17,09,59,18.20
2011,08,17,10,00,18.20
2011,08,17,10,01,18.20
2011,08,17,10,02,18.20
2011,08,17,10,03,18.20
2011,08,17,10,04,18.20
2011,08,17,10,05,18.10
2011,08,17,10,06,18.10
2011,08,17,10,07,18.10
2011,08,17,10,08,18.00
2011,08,17,10,09,17.90
2011,08,17,10,10,17.90
2011,08,17,10,11,17.90
2011,08,17,10,12,17.90
2011,08,17,10,13,17.90
2011,08,17,10,14,17.90
2011,08,17,10,15,17.90
2011,08,17,10,16,18.00
2011,08,17,10,17,18.10
2011,08,17,10,18,18.20
2011,08,17,10,19,18.20
2011,08,17,10,20,18.20
2011,08,17,10,21,18.20
2011,08,17,10,22,18.20
2011,08,17,10,23,18.40
2011,08,17,10,24,18.40
2011,08,17,10,25,18.30
2011,08,17,10,26,18.20
2011,08,17,10,27,18.10
2011,08,17,10,28,18.10
2011,08,17,10,29,18.20
2011,08,17,10,30,18.20
2011,08,17,10,31,18.30
2011,08,17,10,32,18.40
2011,08,17,10,33,18.50
2011,08,17,10,34,18.50
2011,08,17,10,35,18.50
2011,08,17,10,36,18.50
2011,08,17,10,37,18.50
2011,08,17,10,38,18.50
2011,08,17,10,39,18.50
2011,08,17,10,40,18.50
2011,08,17,10,41,18.40
2011,08,17,10,42,18.30
2011,08,17,10,43,18.10
2011,08,17,10,44,18.10
2011,08,17,10,45,18.00
2011,08,17,10,46,17.90
2011,08,17,10,47,18.10
2011,08,17,10,48,18.30
2011,08,17,10,49,18.40
2011,08,17,10,50,18.50
2011,08,17,10,51,18.40
2011,08,17,10,52,18.40
2011,08,17,10,53,18.30
2011,08,17,10,54,18.20
2011,08,17,10,55,18.20
2011,08,17,10,56,18.20
2011,08,17,10,57,18.20
2011,08,17,10,58,18.30
2011,08,17,10,59,18.40
2011,08,17,11,00,18.40
2011,08,17,11,01,18.40
2011,08,17,11,02,18.40
2011,08,17,11,03,18.40
2011,08,17,11,04,18.40
2011,08,17,11,05,18.20
2011,08,17,11,06,18.20
2011,08,17,11,07,18.30
2011,08,17,11,08,18.40
2011,08,17,11,09,18.50
2011,08,17,11,10,18.50
2011,08,17,11,11,18.60
2011,08,17,11,12,18.70
2011,08,17,11,13,18.70
2011,08,17,11,14,18.70
2011,08,17,11,15,18.60
2011,08,17,11,16,18.60
2011,08,17,11,17,18.60
2011,08,17,11,18,18.70
2011,08,17,11,19,18.80
2011,08,17,11,20,19.00
2011,08,17,11,21,19.20
2011,08,17,11,22,19.40
2011,08,17,11,23,19.40
2011,08,17,11,24,19.50
2011,08,17,11,25,19.60
2011,08,17,11,26,19.50
2011,08,17,11,27,19.40
2011,08,17,11,28,19.40
2011,08,17,11,29,19.40
2011,08,17,11,30,19.50
2011,08,17,11,31,19.50
2011,08,17,11,32,19.50
2011,08,17,11,33,19.60
2011,08,17,11,34,19.70
2011,08,17,11,35,19.70
2011,08,17,11,36,19.70
2011,08,17,11,37,19.70
2011,08,17,11,38,19.70
2011,08,17,11,39,19.60
2011,08,17,11,40,19.40
2011,08,17,11,41,19.40
2011,08,17,11,42,19.40
2011,08,17,11,43,19.50
2011,08,17,11,44,19.70
2011,08,17,11,45,19.90
2011,08,17,11,46,19.90
2011,08,17,11,47,19.90
2011,08,17,11,48,19.90
2011,08,17,11,49,19.90
2011,08,17,11,50,20.00
2011,08,17,11,51,20.10
2011,08,17,11,52,20.10
2011,08,17,11,53,20.10
2011,08,17,11,54,20.10
2011,08,17,11,55,20.20
2011,08,17,11,56,20.20
2011,08,17,11,57,20.30
2011,08,17,11,58,20.30
2011,08,17,11,59,20.20
2011,08,17,12,00,20.10
2011,08,17,12,01,20.00
2011,08,17,12,02,19.90
2011,08,17,12,03,19.80
2011,08,17,12,04,19.90
2011,08,17,12,05,20.00
2011,08,17,12,06,20.20
2011,08,17,12,07,20.20
2011,08,17,12,08,20.20
2011,08,17,12,09,20.20
2011,08,17,12,10,20.20
2011,08,17,12,11,20.20
2011,08,17,12,12,20.30
2011,08,17,12,13,20.30
2011,08,17,12,14,20.30
2011,08,17,12,15,20.30
2011,08,17,12,16,20.40
2011,08,17,12,17,20.50
2011,08,17,12,18,20.60
2011,08,17,12,19,20.70
2011,08,17,12,20,20.80
2011,08,17,12,21,20.80
2011,08,17,12,22,20.90
2011,08,17,12,23,20.90
2011,08,17,12,24,20.80
2011,08,17,12,25,20.80
2011,08,17,12,26,21.00
2011,08,17,12,27,21.00
2011,08,17,12,28,21.00
2011,08,17,12,29,20.90
2011,08,17,12,30,20.80
2011,08,17,12,31,20.90
2011,08,17,12,32,21.10
2011,08,17,12,33,21.20
2011,08,17,12,34,21.20
2011,08,17,12,35,21.10
2011,08,17,12,36,21.20
2011,08,17,12,37,21.20
2011,08,17,12,38,21.20
2011,08,17,12,39,21.20
2011,08,17,12,40,21.10
2011,08,17,12,41,21.00
2011,08,17,12,42,21.00
2011,08,17,12,43,21.00
2011,08,17,12,44,20.80
2011,08,17,12,45,20.80
2011,08,17,12,46,20.90
2011,08,17,12,47,20.80
2011,08,17,12,48,20.80
2011,08,17,12,49,20.80
2011,08,17,12,50,20.90
2011,08,17,12,51,21.00
2011,08,17,12,52,20.90
2011,08,17,12,53,20.90
2011,08,17,12,54,20.90
2011,08,17,12,55,20.80
2011,08,17,12,56,20.80
2011,08,17,12,57,20.80
2011,08,17,12,58,20.90
2011,08,17,12,59,20.90
2011,08,17,13,00,20.90
2011,08,17,13,01,21.00
2011,08,17,13,02,21.00
2011,08,17,13,03,20.90
2011,08,17,13,04,21.00
2011,08,17,13,05,21.10
2011,08,17,13,06,21.20
2011,08,17,13,07,21.30
2011,08,17,13,08,21.50
2011,08,17,13,09,21.70
2011,08,17,13,10,21.90
2011,08,17,13,11,22.00
2011,08,17,13,12,22.10
2011,08,17,13,13,22.20
2011,08,17,13,14,22.30
2011,08,17,13,15,22.40
2011,08,17,13,16,22.40
2011,08,17,13,17,22.40
2011,08,17,13,18,22.40
2011,08,17,13,19,22.30
2011,08,17,13,20,22.20
2011,08,17,13,21,22.20
2011,08,17,13,22,22.10
2011,08,17,13,23,22.10
2011,08,17,13,24,22.10
2011,08,17,13,25,22.10
2011,08,17,13,26,22.20
2011,08,17,13,27,22.20
2011,08,17,13,28,22.00
2011,08,17,13,29,22.00
2011,08,17,13,30,21.90
2011,08,17,13,31,21.80
2011,08,17,13,32,21.80
2011,08,17,13,33,21.70
2011,08,17,13,34,21.60
2011,08,17,13,35,21.60
2011,08,17,13,36,21.60
2011,08,17,13,37,21.60
2011,08,17,13,38,21.60
2011,08,17,13,39,21.60
2011,08,17,13,40,21.60
2011,08,17,13,41,21.60
2011,08,17,13,42,21.60
2011,08,17,13,43,21.70
2011,08,17,13,44,21.90
2011,08,17,13,45,22.00
2011,08,17,13,46,22.10
2011,08,17,13,47,22.20
2011,08,17,13,48,22.30
2011,08,17,13,49,22.30
2011,08,17,13,50,22.20
2011,08,17,13,51,22.10
2011,08,17,13,52,22.10
2011,08,17,13,53,22.00
2011,08,17,13,54,22.00
2011,08,17,13,55,22.00
2011,08,17,13,56,22.00
2011,08,17,13,57,21.90
2011,08,17,13,58,22.00
2011,08,17,13,59,22.10
2011,08,17,14,00,22.20
2011,08,17,14,01,22.00
2011,08,17,14,02,21.90
2011,08,17,14,03,21.80
2011,08,17,14,04,21.80
2011,08,17,14,05,21.90
2011,08,17,14,06,22.00
2011,08,17,14,07,22.20
2011,08,17,14,08,22.20
2011,08,17,14,09,22.20
2011,08,17,14,10,22.20
2011,08,17,14,11,22.20
2011,08,17,14,12,22.30
2011,08,17,14,13,22.30
2011,08,17,14,14,22.20
2011,08,17,14,15,22.10
2011,08,17,14,16,22.20
2011,08,17,14,17,22.30
2011,08,17,14,18,22.40
2011,08,17,14,19,22.50
2011,08,17,14,20,22.50
2011,08,17,14,21,22.50
2011,08,17,14,22,22.50
2011,08,17,14,23,22.60
2011,08,17,14,24,22.70
2011,08,17,14,25,22.80
2011,08,17,14,26,22.90
2011,08,17,14,27,22.90
2011,08,17,14,28,23.00
2011,08,17,14,29,22.90
2011,08,17,14,30,22.80
2011,08,17,14,31,22.70
2011,08,17,14,32,22.70
2011,08,17,14,33,22.60
2011,08,17,14,34,22.50
2011,08,17,14,35,22.50
2011,08,17,14,36,22.50
2011,08,17,14,37,22.60
2011,08,17,14,38,22.70
2011,08,17,14,39,22.80
2011,08,17,14,40,22.70
2011,08,17,14,41,22.80
2011,08,17,14,42,22.80
2011,08,17,14,43,22.90
2011,08,17,14,44,22.80
2011,08,17,14,45,22.90
2011,08,17,14,46,22.90
2011,08,17,14,47,22.90
2011,08,17,14,48,23.10
2011,08,17,14,49,23.10
2011,08,17,14,50,23.00
2011,08,17,14,51,22.80
2011,08,17,14,52,22.70
2011,08,17,14,53,22.50
2011,08,17,14,54,22.40
2011,08,17,14,55,22.30
2011,08,17,14,56,22.40
2011,08,17,14,57,22.40
2011,08,17,14,58,22.30
2011,08,17,14,59,22.30
2011,08,17,15,00,22.30
2011,08,17,15,01,22.40
2011,08,17,15,02,22.40
2011,08,17,15,03,22.60
2011,08,17,15,04,22.70
2011,08,17,15,05,22.80
2011,08,17,15,06,22.80
2011,08,17,15,07,22.90
2011,08,17,15,08,22.90
2011,08,17,15,09,22.80
2011,08,17,15,10,22.80
2011,08,17,15,11,22.70
2011,08,17,15,12,22.70
2011,08,17,15,13,22.70
2011,08,17,15,14,22.60
2011,08,17,15,15,22.50
2011,08,17,15,16,22.40
2011,08,17,15,17,22.40
2011,08,17,15,18,22.30
2011,08,17,15,19,22.20
2011,08,17,15,20,22.20
2011,08,17,15,21,22.10
2011,08,17,15,22,22.00
2011,08,17,15,23,22.00
2011,08,17,15,24,21.90
2011,08,17,15,25,21.80
2011,08,17,15,26,21.80
2011,08,17,15,27,21.80
2011,08,17,15,28,21.80
2011,08,17,15,29,21.70
2011,08,17,15,30,21.60
2011,08,17,15,31,21.60
2011,08,17,15,32,21.60
2011,08,17,15,33,21.60
2011,08,17,15,34,21.70
2011,08,17,15,35,21.70
2011,08,17,15,36,21.70
2011,08,17,15,37,21.60
2011,08,17,15,38,21.60
2011,08,17,15,39,21.50
2011,08,17,15,40,21.40
2011,08,17,15,41,21.40
2011,08,17,15,42,21.30
2011,08,17,15,43,21.40
2011,08,17,15,44,21.30
2011,08,17,15,45,21.30
2011,08,17,15,46,21.20
2011,08,17,15,47,21.20
2011,08,17,15,48,21.20
2011,08,17,15,49,21.20
2011,08,17,15,50,21.10
2011,08,17,15,51,21.10
2011,08,17,15,52,21.20
2011,08,17,15,53,21.20
2011,08,17,15,54,21.20
2011,08,17,15,55,21.10
2011,08,17,15,56,21.00
2011,08,17,15,57,21.00
2011,08,17,15,58,20.90
2011,08,17,15,59,21.00
2011,08,17,16,00,20.90
2011,08,17,16,01,21.00
2011,08,17,16,02,21.00
2011,08,17,16,03,21.10
2011,08,17,16,04,21.00
2011,08,17,16,05,21.00
2011,08,17,16,06,21.10
2011,08,17,16,07,21.10
2011,08,17,16,08,21.00
2011,08,17,16,09,21.00
2011,08,17,16,10,21.00
2011,08,17,16,11,21.10
2011,08,17,16,12,21.00
2011,08,17,16,13,21.00
2011,08,17,16,14,21.10
2011,08,17,16,15,21.00
2011,08,17,16,16,21.00
2011,08,17,16,17,20.90
2011,08,17,16,18,20.80
2011,08,17,16,19,20.60
2011,08,17,16,20,20.40
2011,08,17,16,21,20.20
2011,08,17,16,22,20.20
2011,08,17,16,23,20.20
2011,08,17,16,24,20.20
2011,08,17,16,25,20.20
2011,08,17,16,26,20.20
2011,08,17,16,27,20.20
2011,08,17,16,28,20.30
2011,08,17,16,29,20.30
2011,08,17,16,30,20.30
2011,08,17,16,31,20.30
2011,08,17,16,32,20.40
2011,08,17,16,33,20.50
2011,08,17,16,34,20.60
2011,08,17,16,35,20.70
2011,08,17,16,36,20.80
2011,08,17,16,37,20.80
2011,08,17,16,38,20.80
2011,08,17,16,39,20.80
2011,08,17,16,40,20.80
2011,08,17,16,41,20.90
2011,08,17,16,42,21.00
2011,08,17,16,43,21.00
2011,08,17,16,44,21.10
2011,08,17,16,45,21.20
2011,08,17,16,46,21.20
2011,08,17,16,47,21.30
2011,08,17,16,48,21.20
2011,08,17,16,49,21.20
2011,08,17,16,50,21.20
2011,08,17,16,51,21.20
2011,08,17,16,52,21.20
2011,08,17,16,53,21.20
2011,08,17,16,54,21.20
2011,08,17,16,55,21.20
2011,08,17,16,56,21.20
2011,08,17,16,57,21.20
2011,08,17,16,58,21.20
2011,08,17,16,59,21.20
2011,08,17,17,00,21.20
2011,08,17,17,01,21.30
2011,08,17,17,02,21.30
2011,08,17,17,03,21.30
2011,08,17,17,04,21.30
2011,08,17,17,05,21.30
2011,08,17,17,06,21.30
2011,08,17,17,07,21.30
2011,08,17,17,08,21.30
2011,08,17,17,09,21.30
2011,08,17,17,10,21.30
2011,08,17,17,11,21.30
2011,08,17,17,12,21.30
2011,08,17,17,13,21.20
2011,08,17,17,14,21.20
2011,08,17,17,15,21.20
2011,08,17,17,16,21.30
2011,08,17,17,17,21.30
2011,08,17,17,18,21.30
2011,08,17,17,19,21.30
2011,08,17,17,20,21.30
2011,08,17,17,21,21.30
2011,08,17,17,22,21.30
2011,08,17,17,23,21.30
2011,08,17,17,24,21.10
2011,08,17,17,25,21.00